Погода в Хотмыжске

Россия / Белгородская область     50°35′47″N   35°51′47″E
темп.,
°C
ветер,
м/с
пор.,
м/с
влажн.,
%
обл.,
%
осадки,
мм/ч
давл.,
гПа
погр.,
м
5 августа, чт
чт500:00+18в345139 0.0 101768
03:00+17вюв345497 0.0 101759
06:00+18вюв355548 0.0 1016115
09:00+25ююв463877 0.0 1016608
12:00+27ююз4633100 0.0 10151808
15:00+28ююз5632100 0.1 10141168
18:00+24св3444100 0.0 1014107
21:00+22в3750100 0.0 1014173
6 августа, пт
пт600:00+21вюв495178 0.0 1012186
03:00+19юв48555 0.0 1012140
06:00+18вюв495395 0.0 1011166
09:00+27ююв4634100 0.0 1010580
12:00+33юв562369 0.0 10081943
15:00+35ю781942 0.0 10063290
18:00+28ююв51246100 0.4 1005361
21:00+27ююв47449 0.9 1005143
7 августа, сб
сб700:00+22юв396816 0.9 1006141
03:00+20всв348397 2.1 100772
06:00+19юв51786100 0.9 1007504
09:00+24юв71258100 0.9 1007632
12:00+29ю4639100 0.3 10081589
15:00+31ю1235100 0.6 10082023
18:00+29в2143100 0.0 1008581
21:00+23ссз51068100 0.0 1010347
8 августа, вс
вс800:00+18с41182100 4.2 1012263
03:00+17с41283100 7.1 1013291
06:00+17ссв31087100 1.5 1014323
09:00+20ссв577198 1.6 1014415
12:00+25ссв67480 0.1 1015919
15:00+28св54440 0.1 10151457
18:00+27ссв44470 0.0 10151078
21:00+20св38781 0.7 1017149
9 августа, пн
пн900:00+19св35875 0.1 101783
03:00+18всв22875 0.1 101714
06:00+18ссв2283100 0.0 101730
09:00+22св346699 0.0 1017240
12:00+29св4535100 0.0 10161960
15:00+30св443484 0.0 10161823
18:00+28св553899 0.0 10161080
21:00+22св385810 0.0 1016150